Tracking 18987 objects as of 24-Feb-2018
HD Live streaming from Space Station
objects crossing your sky now

SAFIR 2

Track SAFIR 2 now!
10-day predictions
SAFIR 2 is classified as:


NORAD ID: 25399
Int'l Code: 1998-043F
Perigee: 816.5 km
Apogee: 817.4 km
Inclination: 98.6 °
Period: 101.1 minutes
Semi major axis: 7187 km
RCS: 0.3985 m2 (medium)
Launch date: July 10, 1998
Source: Germany (GER)
Launch site: TYURATAM MISSILE AND SPACE COMPLEX (TTMTR)
Uplink (MHz):
Downlink (MHz):
Beacon (MHz): 2401.900
Mode: 9600bps FSK
Call sign: DP1AIS
Status: Inactive

aabbcc
Your satellite tracking list
Your tracking list is empty




NASA's NSSDC Master Catalog

Two Line Element Set (TLE):
1 25399U 98043F   18055.45805833 -.00000002  00000-0  17971-4 0  9999
2 25399  98.6062 359.0185 0000644 260.1853  99.9253 14.24606721 20182
Source of the keplerian elements: AFSPC